Location: Newark
(52.5667°N, 8.8000°W)
Time: 19:22:25
(UTC+00:00)

N. Korean satellite - Pass Details

Date: 27 January 2020
Orbit: 456 x 506 km, 97.2° (Epoch: 17 February)

Event Time Altitude Azimuth Distance (km) Brightness Sun altitude
Rises 18:39:07 0° 213° (SSW) 2,466 10.9 -13.2°
Reaches altitude 10° 18:42:03 10° 242° (WSW) 1,602 10.5 -13.7°
Maximum altitude 18:43:45 13° 271° (W) 1,424 10.1 -13.9°
Drops below altitude 10° 18:45:28 10° 301° (WNW) 1,614 9.9 -14.2°
Sets 18:48:28 0° 330° (NNW) 2,504 10.4 -14.6°
